EHI
15 18 20 21 20 17 13 11 12 13 12 9 6 5 4 6 6 4 4 4 3 2 2 2 1 1 2 2 2 1 0 0 0 0 0 0 0 0 0 0 0 0 0
16 19 22 24 23 21 18 16 15 15 12 9 7 5 4 4 5 4 4 3 2 2 2 1 0 0 1 1 1 0 0 0 0 0 0 0 0 0 0 0 0 0 0
17 19 23 27 29 28 25 22 20 18 14 11 8 5 3 3 4 5 4 4 2 2 3 2 2 1 1 1 0 0 0 1 1 1 1 2 2 1 0 0 0 0 0
15 16 21 28 32 31 29 27 24 20 17 13 10 8 5 4 5 5 5 5 4 5 5 5 4 3 3 2 1 1 1 2 3 3 3 3 3 2 1 0 0 0 0
16 15 18 26 31 32 31 30 27 23 20 17 14 12 10 8 7 6 6 6 6 7 7 6 6 5 4 4 3 2 1 2 3 4 3 3 2 2 1 0 0 0 0
20 18 19 25 31 34 34 33 31 28 25 22 18 16 15 13 10 9 8 7 7 8 8 7 7 7 7 6 6 5 4 3 4 3 2 1 1 1 0 0 0 0 0
25 23 24 28 34 39 39 36 33 31 28 26 23 20 20 17 13 10 9 8 8 9 8 8 9 9 9 9 8 7 6 5 3 2 1 0 0 0 0 0 0 0 0
29 29 30 33 39 44 45 41 37 34 31 28 25 23 22 19 14 10 9 8 9 10 9 9 9 9 9 8 7 6 5 3 2 1 0 0 0 0 0 0 0 0 0
29 30 31 34 41 46 47 43 40 38 34 30 27 25 23 20 16 11 8 8 10 10 9 8 8 7 7 6 4 3 2 1 1 1 0 0 0 0 0 0 0 0 0
29 28 28 31 38 45 46 43 40 39 36 31 28 26 23 20 16 11 9 10 10 9 8 7 7 5 4 4 3 2 1 1 2 1 0 0 0 0 0 0 0 0 0
32 29 25 27 35 43 46 44 40 38 35 30 28 26 23 20 15 11 10 10 10 9 8 8 7 5 3 3 3 2 1 1 1 1 0 0 0 0 0 0 0 0 0
35 31 26 27 35 42 45 47 45 41 35 30 28 27 25 22 17 12 11 11 10 8 8 8 8 6 4 4 4 2 1 0 0 0 0 0 0 0 0 0 0 0 0
34 32 30 31 36 39 42 48 49 44 38 33 30 29 27 24 19 15 13 12 10 7 7 8 9 7 5 4 3 3 2 1 1 1 1 0 0 0 0 0 0 0 0
31 31 32 33 35 36 39 45 49 47 43 40 36 32 29 25 21 18 16 13 11 8 6 7 8 7 5 3 3 3 3 3 2 2 2 1 0 0 0 0 0 0 0
31 30 32 35 36 35 36 41 48 50 48 46 41 36 31 27 24 21 17 15 13 10 8 7 7 6 4 3 3 3 3 3 3 3 3 2 1 0 0 0 0 1 1
29 29 32 37 38 36 35 39 46 50 49 46 42 36 31 28 27 23 19 16 15 13 10 7 6 4 3 3 3 3 3 3 4 3 3 3 2 1 1 0 0 1 2
25 28 33 37 38 36 35 37 42 47 47 43 38 34 32 30 27 23 18 15 13 12 10 8 7 5 4 3 3 3 3 4 4 4 3 4 4 3 2 1 1 1 2
25 28 34 37 36 34 33 35 40 44 45 43 38 33 32 33 29 23 17 13 10 9 8 8 7 5 4 2 1 1 3 4 4 4 4 5 5 4 3 2 2 2 2
27 32 36 37 35 31 31 34 38 41 43 43 39 36 36 37 33 25 17 12 10 7 6 6 5 5 4 2 0 1 2 3 4 5 5 6 5 3 2 3 3 3 3
29 34 37 37 34 31 31 35 38 39 40 41 41 41 41 38 34 28 20 14 10 6 4 4 5 5 4 2 0 0 1 2 3 5 6 5 3 1 1 2 3 3 3
28 31 34 35 33 31 32 36 38 38 38 39 39 40 39 36 33 30 24 18 13 9 5 4 5 6 5 3 1 0 0 1 3 5 6 5 3 1 0 1 2 2 2
25 25 27 29 29 29 32 36 38 38 37 37 35 33 32 32 32 32 29 23 18 13 8 6 5 6 6 4 2 1 0 2 3 4 5 6 4 1 0 0 1 1 1
22 22 22 24 26 26 29 33 34 35 35 34 31 28 27 30 32 33 31 26 20 16 12 9 7 6 6 4 2 1 0 1 2 3 4 4 3 1 0 0 0 0 0
22 21 20 22 25 25 26 27 28 30 32 31 28 26 25 28 30 31 30 26 20 17 15 12 9 7 6 4 2 0 0 0 1 1 1 2 1 0 0 0 0 0 0
26 24 22 21 23 24 23 22 23 25 27 26 25 24 24 25 25 24 22 20 15 13 12 11 10 7 5 4 2 0 0 0 0 0 0 0 0 0 0 0 0 0 0
30 28 24 21 20 23 23 21 21 23 23 22 21 22 23 22 19 17 15 13 10 7 6 8 8 6 5 4 2 0 0 0 1 1 1 0 0 0 0 0 0 0 0
Wind_Speed
10 10 11 11 9 7 7 7 6 5 4 3 2 2 1 0 0 1 2 2 2 2 2 1 1 1 2 1 2 2 2 1 2 2 2 3 3 2 1 2 2 2 2
9 10 10 10 9 9 8 7 6 5 5 3 3 2 2 1 1 1 1 2 2 2 2 2 1 1 1 2 2 2 1 1 1 2 2 1 3 3 3 2 2 2 2
14 13 12 11 10 10 9 8 7 6 5 4 3 2 2 2 1 1 1 1 2 2 2 2 2 1 2 1 1 2 3 1 1 1 3 3 2 0 2 3 3 3 3
12 12 12 12 12 10 9 8 7 6 5 5 4 4 3 2 2 2 1 1 1 2 2 2 2 2 2 1 1 1 2 2 1 0 0 2 4 3 1 2 3 4 4
15 14 13 13 12 11 9 8 7 6 6 5 5 5 3 3 2 2 2 1 1 1 2 2 2 2 1 1 1 1 1 1 2 1 1 1 2 2 3 2 1 3 3
14 12 11 10 9 9 9 8 8 6 6 6 5 6 5 5 4 3 2 1 1 1 1 1 1 1 1 1 1 1 1 1 1 1 1 2 2 2 2 3 2 1 1
13 12 12 12 11 11 10 9 9 7 6 6 6 6 6 5 5 4 3 3 1 1 0 1 1 1 1 1 1 1 1 1 1 1 1 2 2 2 3 4 3 2 1
12 13 14 13 13 12 11 10 10 8 7 6 6 5 5 4 3 3 3 3 2 2 2 2 1 1 1 1 2 1 0 1 1 1 1 1 1 2 3 4 5 3 1
11 13 13 13 12 12 12 11 11 9 8 7 6 5 5 4 4 3 3 2 2 2 2 2 2 1 1 2 2 1 1 1 1 1 1 1 1 2 2 3 4 5 3
11 11 12 12 12 12 11 10 10 10 8 7 7 6 5 5 4 4 4 3 2 2 3 2 2 2 2 2 2 2 1 2 2 1 3 2 1 1 2 2 2 2 4
11 11 11 11 11 10 11 10 10 9 8 7 6 6 5 5 5 4 4 3 3 3 3 3 3 2 2 2 2 2 2 3 2 2 3 2 2 2 1 2 2 2 3
9 9 10 10 10 11 10 10 10 9 9 8 7 6 6 5 5 4 4 4 3 3 3 3 2 2 3 2 3 2 2 3 2 2 2 2 2 2 1 2 3 2 2
7 7 8 10 11 11 11 10 10 9 8 8 7 6 6 6 5 5 4 4 4 3 3 3 3 3 3 2 2 3 3 3 2 2 2 1 2 2 1 2 3 2 3
6 6 7 8 9 9 10 10 9 8 8 8 8 7 7 6 6 5 4 4 4 4 3 3 3 3 3 3 3 3 3 3 3 2 2 2 2 2 2 3 3 3 4
6 6 7 7 7 7 8 9 9 8 9 8 8 7 6 6 6 5 5 4 4 5 4 4 3 3 3 3 4 3 4 3 2 2 2 2 3 3 3 3 4 5 4
7 7 7 7 7 8 8 8 8 8 8 8 8 7 6 6 6 6 5 5 4 4 4 4 3 3 2 4 6 5 4 3 3 2 2 3 4 4 5 5 6 7 6
7 7 7 7 8 8 8 8 8 8 8 8 7 7 7 7 6 6 5 5 4 4 4 4 4 3 3 6 7 7 4 3 2 2 2 2 3 3 3 4 5 3 4
6 6 6 6 6 6 6 7 7 7 8 7 7 7 7 7 6 6 6 5 4 4 4 4 4 4 3 6 6 6 4 3 2 2 2 2 2 2 3 3 3 2 1
6 6 5 6 6 6 7 8 7 7 6 7 7 7 7 8 7 7 6 5 4 4 3 4 5 4 3 5 6 6 3 2 2 2 2 3 2 2 4 4 3 2 1
5 5 5 5 5 5 7 8 8 7 7 7 7 6 7 7 8 7 6 4 4 4 4 3 3 4 3 4 5 6 3 3 2 1 1 2 3 4 5 4 4 3 1
6 7 6 5 4 5 7 7 7 7 6 6 6 5 5 6 6 6 5 5 5 4 4 3 2 3 4 5 6 6 3 3 3 2 2 2 3 4 5 4 3 4 3
6 6 6 4 3 5 6 6 5 5 5 6 6 6 5 5 5 6 5 5 6 5 4 3 2 1 2 4 5 6 5 5 4 3 3 3 4 4 4 3 3 4 4
6 5 5 4 3 3 5 5 3 4 5 5 5 4 4 4 5 6 6 5 5 4 4 3 3 2 2 2 5 6 6 6 3 3 5 5 5 4 3 3 4 4 2
5 5 5 5 3 2 3 4 4 5 6 5 4 4 4 3 3 4 4 5 5 5 4 4 3 2 2 2 2 2 3 3 3 2 3 3 3 2 2 1 2 2 2
4 5 5 5 4 3 3 4 5 6 6 5 4 4 4 3 3 3 3 4 4 5 6 5 4 4 4 6 8 6 5 4 4 3 1 1 1 1 1 1 1 1 1
4 4 5 5 4 4 3 3 5 6 6 5 4 4 4 3 2 3 2 1 2 3 5 6 6 5 6 7 9 9 8 7 7 5 3 3 3 4 4 3 3 3 3
Wind_Direction
174 166 164 161 157 156 153 153 154 159 145 132 130 125 142 157 115 160 156 149 141 133 124 119 106 107 120 139 125 119 105 92 108 89 56 29 40 58 64 95 97 102 114
168 170 168 166 167 167 165 161 162 164 160 157 156 158 158 167 166 156 131 135 128 135 134 127 126 114 104 86 107 118 117 146 138 129 109 50 21 28 41 64 86 88 88
177 176 175 176 172 174 174 171 171 168 167 158 136 115 85 63 65 81 103 117 130 130 116 118 116 109 115 126 137 137 142 163 227 156 144 148 176 37 21 44 60 68 73
179 178 177 178 178 181 177 167 169 169 166 156 149 151 153 161 188 178 154 114 109 115 114 114 116 111 109 120 144 134 147 147 177 300 140 159 154 148 118 32 39 53 60
181 181 183 183 180 177 174 170 166 168 166 161 161 157 159 168 158 136 118 98 60 98 118 116 116 115 119 133 137 129 136 150 167 179 151 95 93 117 140 140 65 50 46
182 181 180 176 173 172 171 170 165 170 168 164 163 163 161 155 147 149 142 130 94 66 95 103 100 117 134 144 151 145 148 170 172 174 162 159 153 159 144 145 139 108 49
178 177 175 176 176 174 175 173 168 173 173 167 168 168 165 157 158 159 156 153 145 138 170 125 123 148 170 137 118 125 139 157 157 169 170 174 179 161 147 140 144 135 119
180 178 179 178 179 177 176 173 173 174 173 169 173 168 158 152 156 162 156 159 169 178 170 147 146 143 120 104 98 101 111 87 98 115 136 145 166 149 151 150 145 135 114
180 179 179 178 177 177 179 176 173 173 173 172 164 159 161 155 156 153 147 153 164 155 139 134 124 112 98 97 98 79 64 77 74 72 80 92 105 124 132 139 150 148 154
173 176 178 178 178 178 174 172 173 176 175 171 170 168 167 163 159 145 145 150 146 127 122 115 112 105 93 95 97 86 71 78 62 73 71 65 76 100 110 135 137 135 144
174 177 180 179 175 169 169 171 174 172 170 171 169 166 165 162 155 154 160 158 146 141 138 130 115 107 101 101 99 94 87 85 66 61 77 69 80 95 102 110 114 115 122
169 173 174 170 169 169 170 173 175 174 175 172 166 166 162 155 157 166 169 157 148 146 143 133 120 115 105 99 101 101 88 91 88 81 83 75 89 85 99 109 116 125 130
151 155 161 169 173 173 172 174 175 175 171 164 163 164 165 163 169 174 169 156 148 143 136 130 128 121 110 101 99 101 93 88 92 95 97 96 100 92 96 114 120 122 118
147 151 156 167 173 173 173 171 172 169 164 161 163 169 174 174 174 165 158 158 149 141 138 131 127 124 115 107 103 100 94 86 74 75 87 95 115 133 132 123 123 123 117
139 155 162 161 165 164 166 168 168 168 166 165 170 176 173 166 160 157 157 153 148 147 144 131 123 123 121 122 123 119 112 103 86 65 64 80 94 107 123 136 140 135 134
163 161 161 162 165 168 168 165 166 168 164 167 174 170 163 161 160 159 154 150 149 146 136 138 138 139 138 133 134 130 122 118 111 95 66 72 74 84 90 119 142 152 155
167 164 166 172 174 173 167 165 165 158 159 165 166 162 161 160 162 160 153 157 159 148 144 149 143 146 151 139 136 134 132 129 128 127 113 90 77 81 89 94 103 126 154
159 162 165 162 163 161 159 155 151 156 162 165 167 164 161 161 158 154 159 162 151 151 159 162 155 148 157 145 141 135 126 126 136 138 134 120 102 106 112 103 90 83 112
154 156 158 153 154 157 155 148 152 161 165 167 170 170 167 163 161 164 166 161 152 154 164 164 156 152 165 160 147 137 128 127 132 136 132 136 136 147 132 117 109 82 8
131 130 129 123 137 154 151 150 157 163 177 178 172 167 166 167 170 170 165 158 152 153 146 142 152 158 171 177 159 147 141 140 139 129 143 156 154 151 145 142 143 150 203
124 125 126 127 146 153 149 153 161 177 179 162 151 152 160 167 167 161 155 150 148 143 144 145 151 169 185 183 173 163 156 164 165 172 190 214 183 163 161 162 172 190 175
117 122 122 126 140 142 145 151 166 169 150 146 148 153 157 165 161 154 153 152 151 151 158 156 167 202 203 189 187 180 177 171 171 191 200 207 194 181 174 176 181 164 139
129 125 123 116 113 127 135 141 155 140 135 137 145 150 152 154 154 158 160 159 160 162 171 173 185 206 208 206 197 191 186 182 181 203 204 202 200 192 192 194 174 154 143
136 128 124 122 120 123 131 143 140 134 130 135 141 144 147 146 148 156 160 166 173 175 178 184 189 188 184 196 196 201 196 190 189 201 199 189 194 199 212 210 193 178 179
142 140 140 142 147 137 131 141 143 138 134 139 146 149 146 152 153 152 164 177 185 184 182 190 184 183 203 216 199 189 194 196 196 164 137 132 145 186 237 238 223 200 185
141 139 137 141 146 140 136 149 155 147 143 147 154 154 148 148 154 147 123 63 172 180 191 199 193 209 213 204 198 200 198 192 172 155 173 195 197 201 206 210 225 219 212